• In Germany
  • List of Countries
  • For 7 days
  • Water Temperature
  • Satellite Maps
  • Weather Map
  • Weather Widgets
  • user-avatar
    Login

    Hourly Weather Leticia

    Today, 22 July, Sunday

    Time Temperature Precipitation Wind Pressure Humidity
    00:00 +24°C° 0.1 mm 1 mps 753 mmHg 95%
    01:00 +24°C° 0.1 mm 1 mps 753 mmHg 96%
    02:00 +23°C° 0.2 mm 1 mps 753 mmHg 97%
    03:00 +23°C° 0.2 mm 1 mps 753 mmHg 97%
    04:00 +23°C° 0.2 mm 1 mps 753 mmHg 98%
    05:00 +23°C° 0 mm 1 mps 753 mmHg 97%
    06:00 +23°C° 0 mm 1 mps 753 mmHg 96%
    07:00 +24°C° 0 mm 2 mps 754 mmHg 95%
    08:00 +25°C° 0 mm 2 mps 754 mmHg 88%
    09:00 +26°C° 0 mm 2 mps 754 mmHg 81%
    10:00 +27°C° 0 mm 1 mps 754 mmHg 75%
    11:00 +29°C° 0 mm 1 mps 753 mmHg 65%
    12:00 +31°C° 0 mm 1 mps 753 mmHg 56%
    13:00 +34°C° 0 mm 1 mps 752 mmHg 46%
    14:00 +33°C° 0 mm 1 mps 751 mmHg 47%
    15:00 +33°C° 0 mm 1 mps 751 mmHg 47%
    16:00 +33°C° 0 mm 1 mps 750 mmHg 47%
    17:00 +31°C° 0 mm 1 mps 750 mmHg 55%
    18:00 +27°C° 0 mm 0 mps 751 mmHg 63%
    19:00 +25°C° 0 mm 0 mps 751 mmHg 70%
    20:00 +24°C° 0 mm 0 mps 752 mmHg 72%
    21:00 +23°C° 0 mm 0 mps 752 mmHg 74%
    22:00 +23°C° 0 mm 0 mps 753 mmHg 75%
    23:00 +22°C° 0 mm 0 mps 752 mmHg 76%

    Tomorrow, 23 July, Monday

    Time Temperature Precipitation Wind Pressure Humidity
    00:00 +22°C° 0 mm 0 mps 752 mmHg 78%
    01:00 +22°C° 0 mm 0 mps 752 mmHg 79%
    02:00 +22°C° 0 mm 0 mps 752 mmHg 80%
    03:00 +21°C° 0 mm 0 mps 752 mmHg 81%
    04:00 +21°C° 0 mm 0 mps 752 mmHg 82%
    05:00 +22°C° 0 mm 0 mps 753 mmHg 82%
    06:00 +22°C° 0 mm 0 mps 753 mmHg 81%
    07:00 +23°C° 0 mm 0 mps 754 mmHg 80%
    08:00 +25°C° 0 mm 0 mps 754 mmHg 70%
    09:00 +30°C° 0 mm 1 mps 754 mmHg 59%
    10:00 +33°C° 0 mm 1 mps 754 mmHg 49%
    11:00 +34°C° 0 mm 1 mps 754 mmHg 45%
    12:00 +35°C° 0 mm 1 mps 753 mmHg 41%
    13:00 +36°C° 0 mm 1 mps 752 mmHg 37%
    14:00 +35°C° 0 mm 1 mps 751 mmHg 41%
    15:00 +34°C° 0 mm 1 mps 751 mmHg 46%
    16:00 +31°C° 0 mm 0 mps 750 mmHg 50%
    17:00 +29°C° 0 mm 0 mps 751 mmHg 55%
    18:00 +28°C° 0 mm 0 mps 751 mmHg 60%
    19:00 +26°C° 0 mm 0 mps 752 mmHg 65%
    20:00 +25°C° 0 mm 0 mps 752 mmHg 67%
    21:00 +25°C° 0 mm 0 mps 753 mmHg 68%
    22:00 +24°C° 0 mm 0 mps 753 mmHg 70%
    23:00 +24°C° 0 mm 0 mps 753 mmHg 71%

    Day after tomorrow, 24 July, Tuesday

    Time Temperature Precipitation Wind Pressure Humidity
    00:00 +23°C° 0 mm 0 mps 753 mmHg 73%
    01:00 +23°C° 0 mm 0 mps 753 mmHg 74%
    02:00 +23°C° 0 mm 0 mps 753 mmHg 76%
    03:00 +22°C° 0 mm 0 mps 753 mmHg 77%
    04:00 +22°C° 0 mm 0 mps 753 mmHg 79%
    05:00 +22°C° 0 mm 0 mps 753 mmHg 79%
    06:00 +23°C° 0 mm 0 mps 754 mmHg 79%
    07:00 +23°C° 0 mm 0 mps 754 mmHg 79%
    08:00 +25°C° 0 mm 0 mps 754 mmHg 71%
    09:00 +29°C° 0 mm 1 mps 755 mmHg 63%
    10:00 +31°C° 0 mm 1 mps 755 mmHg 55%
    11:00 +33°C° 0 mm 1 mps 754 mmHg 48%
    12:00 +35°C° 0 mm 1 mps 753 mmHg 42%
    13:00 +37°C° 0 mm 2 mps 752 mmHg 35%
    14:00 +36°C° 0 mm 1 mps 752 mmHg 38%
    15:00 +35°C° 0 mm 1 mps 751 mmHg 40%
    16:00 +35°C° 0 mm 1 mps 750 mmHg 43%
    17:00 +31°C° 0 mm 0 mps 751 mmHg 49%
    18:00 +28°C° 0 mm 0 mps 751 mmHg 55%
    19:00 +26°C° 0 mm 0 mps 752 mmHg 61%
    20:00 +25°C° 0 mm 0 mps 752 mmHg 63%
    21:00 +25°C° 0 mm 0 mps 753 mmHg 64%
    22:00 +24°C° 0 mm 0 mps 753 mmHg 66%
    23:00 +24°C° 0 mm 0 mps 753 mmHg 68%

    25 July, Wednesday

    Time Temperature Precipitation Wind Pressure Humidity
    00:00 +23°C° 0 mm 0 mps 753 mmHg 69%
    01:00 +23°C° 0 mm 0 mps 753 mmHg 70%
    02:00 +23°C° 0 mm 0 mps 753 mmHg 71%
    03:00 +23°C° 0 mm 0 mps 753 mmHg 72%
    04:00 +22°C° 0 mm 0 mps 753 mmHg 73%
    05:00 +23°C° 0 mm 0 mps 753 mmHg 73%
    06:00 +23°C° 0 mm 0 mps 754 mmHg 74%
    07:00 +23°C° 0 mm 0 mps 754 mmHg 74%
    08:00 +24°C° 0 mm 0 mps 755 mmHg 72%
    09:00 +24°C° 0 mm 0 mps 755 mmHg 71%
    10:00 +25°C° 0 mm 0 mps 755 mmHg 69%
    11:00 +27°C° 0 mm 0 mps 755 mmHg 62%
    12:00 +31°C° 0 mm 1 mps 754 mmHg 54%
    13:00 +32°C° 0 mm 1 mps 753 mmHg 47%
    14:00 +33°C° 0 mm 1 mps 753 mmHg 47%
    15:00 +33°C° 0 mm 1 mps 752 mmHg 46%
    16:00 +33°C° 0 mm 1 mps 751 mmHg 45%
    17:00 +31°C° 0 mm 1 mps 751 mmHg 53%
    18:00 +29°C° 0 mm 1 mps 752 mmHg 60%
    19:00 +25°C° 0 mm 0 mps 752 mmHg 67%
    20:00 +24°C° 0 mm 0 mps 753 mmHg 68%
    21:00 +26°C° 0 mm 1 mps 753 mmHg 68%
    22:00 +26°C° 0 mm 1 mps 754 mmHg 69%
    23:00 +25°C° 0 mm 1 mps 754 mmHg 72%

    26 July, Thursday

    Time Temperature Precipitation Wind Pressure Humidity
    00:00 +25°C° 0 mm 1 mps 753 mmHg 75%
    01:00 +25°C° 0 mm 1 mps 753 mmHg 77%
    02:00 +24°C° 0 mm 1 mps 753 mmHg 82%
    03:00 +22°C° 0 mm 0 mps 753 mmHg 87%
    04:00 +21°C° 0 mm 0 mps 753 mmHg 91%
    05:00 +22°C° 0 mm 0 mps 754 mmHg 90%
    06:00 +22°C° 0 mm 0 mps 754 mmHg 89%
    07:00 +23°C° 0 mm 0 mps 755 mmHg 88%
    08:00 +25°C° 0 mm 0 mps 755 mmHg 80%
    09:00 +29°C° 0 mm 1 mps 755 mmHg 72%
    10:00 +31°C° 0 mm 1 mps 755 mmHg 64%
    11:00 +32°C° 0 mm 1 mps 754 mmHg 57%
    12:00 +34°C° 0 mm 1 mps 753 mmHg 50%
    13:00 +36°C° 0 mm 1 mps 752 mmHg 43%
    14:00 +35°C° 0 mm 1 mps 752 mmHg 44%
    15:00 +35°C° 0 mm 1 mps 751 mmHg 46%
    16:00 +34°C° 0 mm 1 mps 751 mmHg 47%
    17:00 +32°C° 0 mm 1 mps 751 mmHg 55%
    18:00 +30°C° 0 mm 1 mps 752 mmHg 63%
    19:00 +28°C° 0 mm 1 mps 752 mmHg 71%
    20:00 +27°C° 0 mm 1 mps 753 mmHg 77%
    21:00 +26°C° 0 mm 1 mps 753 mmHg 83%
    22:00 +25°C° 0 mm 1 mps 753 mmHg 89%
    23:00 +24°C° 0.2 mm 1 mps 753 mmHg 92%

    27 July, Friday

    Time Temperature Precipitation Wind Pressure Humidity
    00:00 +24°C° 0.2 mm 1 mps 753 mmHg 95%
    01:00 +24°C° 0.2 mm 1 mps 753 mmHg 97%
    02:00 +23°C° 0 mm 1 mps 753 mmHg 97%
    03:00 +23°C° 0 mm 1 mps 753 mmHg 98%
    04:00 +23°C° 0 mm 1 mps 753 mmHg 98%
    05:00 +24°C° 0 mm 1 mps 753 mmHg 96%
    06:00 +24°C° 0 mm 1 mps 754 mmHg 95%
    07:00 +24°C° 0 mm 1 mps 754 mmHg 93%
    08:00 +27°C° 0 mm 1 mps 754 mmHg 81%
    09:00 +29°C° 0 mm 1 mps 754 mmHg 70%
    10:00 +32°C° 0 mm 1 mps 755 mmHg 58%
    11:00 +34°C° 0 mm 1 mps 754 mmHg 51%
    12:00 +34°C° 0 mm 0 mps 753 mmHg 45%
    13:00 +36°C° 0 mm 0 mps 752 mmHg 39%
    14:00 +35°C° 0 mm 0 mps 751 mmHg 42%
    15:00 +33°C° 0 mm 0 mps 751 mmHg 45%
    16:00 +32°C° 0 mm 0 mps 750 mmHg 49%
    17:00 +30°C° 0 mm 0 mps 751 mmHg 55%
    18:00 +28°C° 0 mm 0 mps 751 mmHg 60%
    19:00 +26°C° 0 mm 0 mps 752 mmHg 66%
    20:00 +26°C° 0 mm 0 mps 752 mmHg 68%
    21:00 +25°C° 0 mm 0 mps 752 mmHg 70%
    22:00 +25°C° 0 mm 0 mps 753 mmHg 71%
    23:00 +24°C° 0 mm 0 mps 752 mmHg 73%
    Show more